Hourly Data Report for October 06, 2014

All times are specified in Local Standard Time (LST). Add 1 hour to adjust for Daylight Saving Time where and when it is observed.

RANKIN INLET A
NUNAVUT

62°48'38.000" N
92°06'53.000" W
32.30 m
2303405
71083
YRT

Download Data

Hourly Data (October 2014)
Hourly Data Report for October 6, 2014
Temp Definition
°C
Dew Point Temp Definition
°C
Rel Hum Definition
%
Wind Dir Definition
10's deg

Wind Spd Definition
km/h
Visibility Definition
km
Stn Press Definition
kPa
Hmdx Definition


Wind Chill Definition


Weather Definition


TIME
00:00 Legend Double Dagger 1.5 0.0 90 7 44 16.1 99.26     Rain,Snow
01:00 Legend Double Dagger 1.4 0.1 91 7 32 16.1 99.26     Rain,Snow
02:00 Legend Double Dagger 1.5 -0.1 89 6 35 19.3 99.23     Rain,Snow
03:00 Legend Double Dagger 1.2 -0.1 91 5 35 16.1 99.15     Rain,Snow
04:00 Legend Double Dagger 1.2 -0.1 91 5 32 16.1 99.07     Rain,Snow
05:00 Legend Double Dagger 1.3 0.0 91 6 36 16.1 98.99     Rain,Snow
06:00 Legend Double Dagger 1.3 0.0 91 5 36 16.1 98.91     Rain,Snow
07:00 Legend Double Dagger 1.3 0.0 91 6 34 19.3 98.86     Rain,Snow
08:00 Legend Double Dagger 0.9 -0.1 93 8 36 16.1 98.86     Rain,Snow
09:00 Legend Double Dagger 0.6 -0.1 95 9 23 6.4 98.88     Rain,Snow
10:00 Legend Double Dagger 1.1 0.5 96 12 30 16.1 99.06     Rain,Snow
11:00 Legend Double Dagger 1.7 0.8 94 14 39 24.1 99.23     LegendNANA
12:00 Legend Double Dagger 2.5 1.5 93 11 26 24.1 99.43     Cloudy
13:00 Legend Double Dagger 3.0 2.0 93 11 31 24.1 99.54     LegendNANA
14:00 Legend Double Dagger 3.7 2.2 90 11 31 24.1 99.67     LegendNANA
15:00 Legend Double Dagger 3.6 2.1 90 11 29 24.1 99.85     Mainly Clear
16:00 Legend Double Dagger 3.2 1.7 90 10 20 24.1 99.98     LegendNANA
17:00 Legend Double Dagger 2.6 1.3 91 9 21 24.1 100.10     LegendNANA
18:00 Legend Double Dagger 2.1 0.9 92 9 21 24.1 100.21     Mainly Clear
19:00 Legend Double Dagger 1.9 1.0 94 8 26 24.1 100.30     LegendNANA
20:00 Legend Double Dagger 1.9 1.2 95 8 23 24.1 100.38     LegendNANA
21:00 Legend Double Dagger 2.0 1.3 95 8 22 14.5 100.44     Fog
22:00 Legend Double Dagger 1.8 1.4 97 7 28 0.4 100.46     Fog
23:00 Legend Double Dagger 1.9 1.5 97 8 28 0.4 100.49     Fog

Notes on Data Quality.

Legend

  • E = Estimated
  • M = Missing
  • NA = Not Available
  • ‡ = Partner data that is not subject to review by the National Climate Archives
Date modified: